Weather History for Sidney-Richland, MT

Change the Weather History Date:

Tuesday, June 10, 2014

  Actual Average Record
Temperature  
Mean Temperature 63 °F -  
Max Temperature 75 °F 80 °F 103 °F (1988)
Min Temperature 51 °F 51 °F 37 °F (1982)
Degree Days  
Heating Degree Days 2    
Growing Degree Days 13 (Base 50)    
Moisture  
Dew Point 45 °F    
Average Humidity 57    
Maximum Humidity 88    
Minimum Humidity 31    
Precipitation  
Precipitation 0.00 in - - ()
Sea Level Pressure  
Sea Level Pressure 29.85 in    
Wind  
Wind Speed 7 mph (North)    
Max Wind Speed 16 mph    
Max Gust Speed 20 mph    
Visibility 10 miles    
Events      
Averages and records for this station are not official NWS values.
T = Trace of Precipitation, MM = Missing Value Source: NWS Daily Summary

Daily Weather History Graph

Daily Weather History Graph

Search for Another Location

Airport:

Trip Planner

Search our weather history database for the weather conditions in past years. The results will help you decide how hot, cold, wet, or windy it might be!

Date:

Astronomy

Jun. 10, 2014 Rise Set
Actual Time 4:58 AM MDT 8:54 PM MDT
Civil Twilight 4:18 AM MDT 9:34 PM MDT
Nautical Twilight 3:22 AM MDT 10:30 PM MDT
Astronomical Twilight 1:56 AM MDT 11:57 PM MDT
Moon 6:12 PM MDT (6/10) 3:18 AM MDT (6/10)
Length of Visible Light 17h 16m
Length of Day
15h 55m
Waxing Gibbous, 92% of the Moon is Illuminated
Jun 10
Waxing Gibbous
Jun 12
Full
Jun 19
Last Quarter
Jun 27
New
Jul 5
First Quarter

Hourly Weather History & Observations

Time (MDT) Temp. Dew Point Humidity Pressure Visibility Wind Dir Wind Speed Gust Speed Precip Events Conditions
12:15 AM 57.2 °F 50.0 °F 77% 29.83 in 10.0 mi NW 6.9 mph - N/A   Partly Cloudy
12:35 AM 57.2 °F 50.0 °F 77% 29.83 in 10.0 mi Calm Calm - N/A   Clear
12:55 AM 55.4 °F 50.0 °F 82% 29.82 in 10.0 mi Calm Calm - N/A   Clear
1:15 AM 53.6 °F 50.0 °F 88% 29.81 in 10.0 mi WNW 4.6 mph - N/A   Clear
1:35 AM 53.6 °F 50.0 °F 88% 29.80 in 10.0 mi WNW 4.6 mph - N/A   Clear
1:55 AM 55.4 °F 50.0 °F 82% 29.81 in 10.0 mi Calm Calm - N/A   Clear
2:15 AM 53.6 °F 48.2 °F 82% 29.82 in 10.0 mi Calm Calm - N/A   Clear
2:35 AM 51.8 °F 48.2 °F 88% 29.83 in 10.0 mi WNW 5.8 mph - N/A   Clear
2:55 AM 51.8 °F 48.2 °F 88% 29.83 in 10.0 mi West 8.1 mph - N/A   Clear
3:15 AM 51.8 °F 48.2 °F 88% 29.84 in 10.0 mi North 4.6 mph - N/A   Partly Cloudy
3:35 AM 51.8 °F 48.2 °F 88% 29.84 in 10.0 mi NW 10.4 mph - N/A   Clear
3:55 AM 51.8 °F 48.2 °F 88% 29.84 in 10.0 mi NW 10.4 mph - N/A   Clear
4:15 AM 53.6 °F 48.2 °F 82% 29.85 in 10.0 mi NW 9.2 mph - N/A   Clear
4:35 AM 53.6 °F 48.2 °F 82% 29.85 in 10.0 mi NW 11.5 mph - N/A   Partly Cloudy
4:55 AM 53.6 °F 48.2 °F 82% 29.86 in 10.0 mi NW 11.5 mph - N/A   Clear
5:15 AM 53.6 °F 46.4 °F 77% 29.86 in 10.0 mi NW 13.8 mph - N/A   Clear
5:35 AM 53.6 °F 46.4 °F 77% 29.86 in 10.0 mi NW 12.7 mph - N/A   Clear
5:55 AM 53.6 °F 46.4 °F 77% 29.87 in 10.0 mi NW 15.0 mph - N/A   Clear
6:15 AM 53.6 °F 46.4 °F 77% 29.87 in 10.0 mi NNW 13.8 mph - N/A   Clear
6:35 AM 55.4 °F 46.4 °F 72% 29.88 in 10.0 mi NNW 13.8 mph 19.6 mph N/A   Clear
6:55 AM 55.4 °F 46.4 °F 72% 29.88 in 10.0 mi NNW 15.0 mph - N/A   Clear
7:15 AM 57.2 °F 46.4 °F 67% 29.89 in 10.0 mi NNW 13.8 mph 17.3 mph N/A   Clear
7:55 AM 57.2 °F 44.6 °F 63% 29.89 in 10.0 mi North 15.0 mph - N/A   Clear
8:15 AM 60.8 °F 42.8 °F 52% 29.90 in 10.0 mi North 15.0 mph - N/A   Clear
8:35 AM 60.8 °F 39.2 °F 45% 29.90 in 10.0 mi North 16.1 mph - N/A   Clear
9:15 AM 60.8 °F 42.8 °F 52% 29.90 in 10.0 mi North 12.7 mph - N/A   Clear
9:35 AM 62.6 °F 44.6 °F 52% 29.90 in 10.0 mi NNE 12.7 mph 16.1 mph N/A   Clear
9:55 AM 64.4 °F 42.8 °F 45% 29.90 in 10.0 mi North 10.4 mph - N/A   Clear
10:15 AM 64.4 °F 42.8 °F 45% 29.91 in 10.0 mi NNW 6.9 mph - N/A   Clear
10:35 AM 64.4 °F 42.8 °F 45% 29.90 in 10.0 mi Calm Calm - N/A   Clear
11:15 AM 66.2 °F 42.8 °F 43% 29.89 in 10.0 mi Calm Calm - N/A   Clear
11:35 AM 68.0 °F 42.8 °F 40% 29.88 in 10.0 mi East 6.9 mph - N/A   Clear
11:55 AM 69.8 °F 41.0 °F 35% 29.88 in 10.0 mi NNE 11.5 mph - N/A   Clear
12:15 PM 69.8 °F 39.2 °F 33% 29.88 in 10.0 mi NE 3.5 mph - N/A   Clear
12:35 PM 69.8 °F 42.8 °F 38% 29.88 in 10.0 mi NNE 6.9 mph - N/A   Clear
1:15 PM 69.8 °F 39.2 °F 33% 29.87 in 10.0 mi NE 9.2 mph - N/A   Clear
1:35 PM 69.8 °F 41.0 °F 35% 29.87 in 10.0 mi NE 5.8 mph - N/A   Clear
1:55 PM 71.6 °F 39.2 °F 31% 29.87 in 10.0 mi NE 5.8 mph - N/A   Clear
2:15 PM - - N/A% - 10.0 mi North - - N/A   Unknown
2:35 PM 71.6 °F 39.2 °F 31% 29.86 in 10.0 mi North 8.1 mph - N/A   Clear
3:15 PM 73.4 °F 41.0 °F 31% 29.85 in 10.0 mi East 6.9 mph - N/A   Clear
3:35 PM 73.4 °F 41.0 °F 31% 29.85 in 10.0 mi ENE 6.9 mph - N/A   Clear
3:55 PM 73.4 °F 42.8 °F 33% 29.85 in 10.0 mi ENE 4.6 mph - N/A   Clear
4:15 PM 75.2 °F 44.6 °F 34% 29.84 in 10.0 mi NE 8.1 mph - N/A   Clear
4:35 PM 75.2 °F 44.6 °F 34% 29.83 in 10.0 mi East 11.5 mph - N/A   Clear
4:55 PM 75.2 °F 42.8 °F 31% 29.83 in 10.0 mi East 9.2 mph - N/A   Partly Cloudy
5:15 PM 73.4 °F 44.6 °F 36% 29.83 in 10.0 mi ENE 8.1 mph - N/A   Partly Cloudy
5:35 PM 73.4 °F 44.6 °F 36% 29.83 in 10.0 mi NE 8.1 mph - N/A   Clear
5:55 PM 71.6 °F 42.8 °F 35% 29.84 in 10.0 mi NNE 6.9 mph - N/A   Scattered Clouds
6:15 PM 69.8 °F 42.8 °F 38% 29.83 in 10.0 mi NNE 6.9 mph - N/A   Mostly Cloudy
6:35 PM 69.8 °F 44.6 °F 40% 29.83 in 10.0 mi NNE 6.9 mph - N/A   Mostly Cloudy
6:55 PM 69.8 °F 44.6 °F 40% 29.82 in 10.0 mi NNE 6.9 mph - N/A   Mostly Cloudy
7:15 PM 69.8 °F 44.6 °F 40% 29.83 in 10.0 mi NE 6.9 mph - N/A   Overcast
7:35 PM 68.0 °F 42.8 °F 40% 29.82 in 10.0 mi NE 8.1 mph - N/A   Overcast
7:55 PM 68.0 °F 42.8 °F 40% 29.83 in 10.0 mi NE 6.9 mph - N/A   Overcast
8:15 PM 66.2 °F 44.6 °F 46% 29.83 in 10.0 mi NE 5.8 mph - N/A   Overcast
8:35 PM 66.2 °F 44.6 °F 46% 29.83 in 10.0 mi ENE 6.9 mph - N/A   Overcast
9:15 PM 64.4 °F 48.2 °F 56% 29.83 in 10.0 mi ESE 6.9 mph - N/A   Mostly Cloudy
9:35 PM 62.6 °F 46.4 °F 55% 29.83 in 10.0 mi Calm Calm - N/A   Scattered Clouds
9:55 PM 60.8 °F 46.4 °F 59% 29.83 in 10.0 mi North 3.5 mph - N/A   Mostly Cloudy
10:15 PM 60.8 °F 48.2 °F 63% 29.81 in 10.0 mi NNE 5.8 mph - N/A   Mostly Cloudy
10:35 PM 60.8 °F 46.4 °F 59% 29.82 in 10.0 mi Calm Calm - N/A   Partly Cloudy
10:55 PM 55.4 °F 46.4 °F 72% 29.82 in 10.0 mi SW 4.6 mph - N/A   Clear
11:15 PM 57.2 °F 46.4 °F 67% 29.83 in 10.0 mi SW 5.8 mph - N/A   Clear
11:35 PM 57.2 °F 46.4 °F 67% 29.83 in 10.0 mi SW 3.5 mph - N/A   Scattered Clouds
11:55 PM 57.2 °F 48.2 °F 72% 29.84 in 10.0 mi SSW 3.5 mph - N/A   Overcast